TimeCST,TemperatureF,Dew PointF,Humidity,Sea Level PressureIn,VisibilityMPH,Wind Direction,Wind SpeedMPH,Gust SpeedMPH,PrecipitationIn,Events,Conditions,WindDirDegrees,DateUTC
12:58 AM,38.8,35.4,88,30.17,10.0,Calm,Calm,-,N/A,,Clear,0,2013-12-20 06:58:00
1:58 AM,38.1,35.1,89,30.18,10.0,Calm,Calm,-,N/A,,Clear,0,2013-12-20 07:58:00
2:58 AM,38.7,34.9,86,30.16,10.0,ENE,3.5,-,N/A,,Clear,70,2013-12-20 08:58:00
3:58 AM,39.0,36.0,89,30.16,10.0,NE,2.3,-,N/A,,Clear,40,2013-12-20 09:58:00
4:58 AM,41.2,38.1,89,30.17,10.0,ENE,5.8,-,N/A,,Scattered Clouds,60,2013-12-20 10:58:00
5:58 AM,41.0,37.8,88,30.18,10.0,NE,6.9,-,N/A,,Clear,50,2013-12-20 11:58:00
6:58 AM,43.7,39.7,86,30.20,10.0,NE,3.5,-,N/A,,Mostly Cloudy,40,2013-12-20 12:58:00
7:58 AM,45.7,40.8,83,30.20,10.0,ENE,5.8,-,N/A,,Overcast,60,2013-12-20 13:58:00
8:58 AM,52.9,45.7,77,30.20,10.0,ENE,5.8,-,N/A,,Scattered Clouds,70,2013-12-20 14:58:00
9:58 AM,56.3,48.4,75,30.21,10.0,Variable,1.2,-,N/A,,Mostly Cloudy,0,2013-12-20 15:58:00
10:58 AM,61.5,52.2,71,30.19,10.0,East,3.5,-,N/A,,Scattered Clouds,100,2013-12-20 16:58:00
11:58 AM,66.9,56.7,70,30.15,10.0,SE,4.6,-,N/A,,Partly Cloudy,130,2013-12-20 17:58:00
12:58 PM,70.5,59.2,67,30.13,10.0,SSE,6.9,-,N/A,,Clear,150,2013-12-20 18:58:00
1:58 PM,71.8,60.4,67,30.12,10.0,Variable,6.9,-,N/A,,Mostly Cloudy,0,2013-12-20 19:58:00
2:03 PM,71.6,60.8,69,30.10,10.0,South,9.2,-,N/A,,Mostly Cloudy,180,2013-12-20 20:03:00
2:18 PM,71.6,60.8,69,30.10,10.0,Variable,4.6,-,N/A,,Mostly Cloudy,0,2013-12-20 20:18:00
2:58 PM,72.9,61.2,67,30.12,10.0,SSW,6.9,-,N/A,,Scattered Clouds,200,2013-12-20 20:58:00
3:58 PM,72.3,61.5,69,30.12,10.0,SSE,4.6,-,N/A,,Partly Cloudy,150,2013-12-20 21:58:00
4:58 PM,66.9,61.0,81,30.11,10.0,SSE,3.5,-,N/A,,Clear,150,2013-12-20 22:58:00
5:58 PM,64.2,61.2,90,30.12,10.0,SSE,3.5,-,N/A,,Clear,160,2013-12-20 23:58:00
6:58 PM,61.7,59.5,93,30.13,10.0,ESE,3.5,-,N/A,,Clear,120,2013-12-21 00:58:00
7:58 PM,62.4,60.1,92,30.12,10.0,ESE,3.5,-,N/A,,Clear,120,2013-12-21 01:58:00
8:58 PM,59.9,59.4,98,30.12,10.0,East,2.3,-,N/A,,Clear,80,2013-12-21 02:58:00
9:58 PM,59.2,58.6,98,30.12,10.0,East,3.5,-,N/A,,Clear,80,2013-12-21 03:58:00
10:58 PM,58.3,58.3,100,30.11,9.0,ENE,4.6,-,N/A,,Mostly Cloudy,70,2013-12-21 04:58:00
11:58 PM,60.4,60.4,100,30.09,10.0,East,4.6,-,N/A,,Mostly Cloudy,100,2013-12-21 05:58:00